TimeEDT,TemperatureF,Dew PointF,Humidity,Sea Level PressureIn,VisibilityMPH,Wind Direction,Wind SpeedMPH,Gust SpeedMPH,PrecipitationIn,Events,Conditions,WindDirDegrees,DateUTC
12:56 AM,73.9,73.0,97,29.87,4.0,East,9.2,-,0.05,Rain,Light Rain,90,2013-06-07 04:56:00
1:16 AM,73.4,73.4,100,29.86,5.0,ESE,5.8,-,0.03,Rain,Light Rain,110,2013-06-07 05:16:00
1:44 AM,73.4,71.6,94,29.83,2.5,East,8.1,-,0.17,Rain,Heavy Rain,90,2013-06-07 05:44:00
1:56 AM,73.0,72.0,96,29.83,2.0,East,9.2,-,0.28,Rain,Heavy Rain,80,2013-06-07 05:56:00
2:08 AM,73.4,71.6,94,29.80,2.0,ENE,12.7,-,0.14,Rain,Heavy Rain,70,2013-06-07 06:08:00
2:21 AM,73.4,71.6,94,29.78,2.5,ENE,15.0,23.0,0.23,Rain,Rain,70,2013-06-07 06:21:00
2:28 AM,73.4,73.4,100,29.78,4.0,East,13.8,-,0.27,Rain,Rain,90,2013-06-07 06:28:00
2:34 AM,73.4,73.4,100,29.77,2.5,ESE,18.4,24.2,0.33,Rain,Heavy Rain,110,2013-06-07 06:34:00
2:37 AM,73.4,73.4,100,29.78,2.0,ESE,13.8,24.2,0.37,Rain,Heavy Rain,120,2013-06-07 06:37:00
2:48 AM,73.4,73.4,100,29.78,1.0,ESE,15.0,24.2,0.63,Rain,Heavy Rain,110,2013-06-07 06:48:00
2:51 AM,73.4,73.4,100,29.77,0.8,ESE,17.3,24.2,0.72,Rain,Heavy Rain,110,2013-06-07 06:51:00
2:56 AM,73.9,73.0,97,29.78,0.8,ESE,16.1,23.0,0.88,Rain,Heavy Rain,110,2013-06-07 06:56:00
3:12 AM,73.4,73.4,100,29.77,1.2,SSE,32.2,47.2,0.47,Rain,Heavy Rain,160,2013-06-07 07:12:00
3:18 AM,75.2,73.4,94,29.77,3.0,SSE,13.8,47.2,0.47,Rain,Light Rain,160,2013-06-07 07:18:00
3:32 AM,73.4,73.4,100,29.76,3.0,South,10.4,-,0.54,Rain,Heavy Rain,180,2013-06-07 07:32:00
3:46 AM,75.2,75.2,100,29.76,2.5,South,16.1,31.1,0.61,Rain,Rain,170,2013-06-07 07:46:00
3:56 AM,75.0,75.0,100,29.76,3.0,South,13.8,34.5,0.64,Rain,Rain,180,2013-06-07 07:56:00
4:07 AM,75.2,75.2,100,29.74,5.0,SSE,10.4,21.9,0.02,Rain,Light Rain,160,2013-06-07 08:07:00
4:34 AM,73.4,-9999,N/A,29.73,4.0,SSE,16.1,28.8,0.09,Rain,Light Rain,160,2013-06-07 08:34:00
4:51 AM,73.4,73.4,100,29.72,10.0,South,15.0,21.9,0.09,Rain-Thunderstorm,Light Thunderstorms and Rain,170,2013-06-07 08:51:00
4:56 AM,75.0,73.9,96,29.73,6.0,South,23.0,28.8,0.11,Rain-Thunderstorm,Light Thunderstorms and Rain,170,2013-06-07 08:56:00
5:13 AM,75.2,75.2,100,29.71,6.0,South,12.7,19.6,0.01,Rain-Thunderstorm,Light Thunderstorms and Rain,170,2013-06-07 09:13:00
5:18 AM,75.2,75.2,100,29.71,6.0,South,12.7,18.4,0.01,Rain,Light Rain,170,2013-06-07 09:18:00
5:56 AM,77.0,77.0,100,29.72,6.0,South,13.8,32.2,0.01,,Overcast,170,2013-06-07 09:56:00
6:56 AM,78.1,77.0,96,29.71,5.0,South,19.6,27.6,N/A,,Overcast,170,2013-06-07 10:56:00
7:07 AM,78.8,77.0,94,29.70,5.0,South,16.1,27.6,N/A,,Overcast,170,2013-06-07 11:07:00
7:56 AM,78.1,77.0,96,29.70,5.0,South,23.0,32.2,0.00,Rain,Light Rain,170,2013-06-07 11:56:00
9:56 AM,78.1,75.0,90,29.67,4.0,SSE,19.6,38.0,0.00,Rain,Light Rain,160,2013-06-07 13:56:00
10:13 AM,77.0,75.2,94,29.65,1.8,South,15.0,34.5,0.07,Rain,Rain,170,2013-06-07 14:13:00
10:24 AM,77.0,75.2,94,29.65,4.0,South,13.8,28.8,0.07,,Overcast,180,2013-06-07 14:24:00
10:47 AM,78.8,75.2,89,29.65,6.0,South,25.3,40.3,0.07,,Overcast,180,2013-06-07 14:47:00
10:56 AM,79.0,75.0,88,29.65,6.0,South,21.9,40.3,0.07,,Overcast,180,2013-06-07 14:56:00
11:16 AM,77.0,75.2,94,29.65,1.5,South,21.9,35.7,0.03,Rain,Light Rain,190,2013-06-07 15:16:00
11:20 AM,75.2,75.2,100,29.65,0.8,South,23.0,34.5,0.12,Rain,Heavy Rain,180,2013-06-07 15:20:00
11:30 AM,77.0,75.2,94,29.64,5.0,South,20.7,36.8,0.12,,Overcast,180,2013-06-07 15:30:00
11:56 AM,75.9,74.1,94,29.64,7.0,South,18.4,29.9,0.12,,Overcast,180,2013-06-07 15:56:00
12:27 PM,77.0,75.2,94,29.63,2.0,South,17.3,42.6,0.03,Rain,Light Rain,190,2013-06-07 16:27:00
12:45 PM,77.0,75.2,94,29.62,9.0,South,17.3,33.4,0.03,,Overcast,190,2013-06-07 16:45:00
12:56 PM,77.0,75.0,94,29.61,9.0,South,15.0,32.2,0.03,,Overcast,190,2013-06-07 16:56:00
1:56 PM,78.1,72.0,81,29.59,9.0,South,20.7,38.0,0.01,,Overcast,180,2013-06-07 17:56:00
2:56 PM,78.1,73.0,84,29.58,8.0,SSW,24.2,29.9,0.00,Rain,Light Rain,200,2013-06-07 18:56:00
3:39 PM,80.6,71.6,74,29.57,10.0,SSW,13.8,26.5,0.00,,Overcast,210,2013-06-07 19:39:00
3:56 PM,79.0,71.1,77,29.59,7.0,SW,15.0,32.2,0.00,Rain,Light Rain,230,2013-06-07 19:56:00
4:11 PM,78.8,71.6,78,29.60,10.0,WSW,18.4,33.4,0.00,Rain,Light Rain,240,2013-06-07 20:11:00
4:40 PM,80.6,71.6,74,29.62,10.0,WSW,20.7,36.8,0.00,,Scattered Clouds,240,2013-06-07 20:40:00
4:56 PM,79.0,69.1,72,29.64,10.0,WSW,21.9,36.8,0.00,,Mostly Cloudy,240,2013-06-07 20:56:00
5:26 PM,78.8,69.8,74,29.65,10.0,WSW,17.3,28.8,N/A,,Overcast,240,2013-06-07 21:26:00
5:33 PM,78.8,69.8,74,29.66,10.0,WSW,21.9,31.1,N/A,,Overcast,250,2013-06-07 21:33:00
5:56 PM,78.1,69.1,74,29.68,10.0,WSW,16.1,34.5,N/A,,Overcast,250,2013-06-07 21:56:00
6:56 PM,78.1,69.1,74,29.72,10.0,WSW,10.4,20.7,N/A,,Mostly Cloudy,240,2013-06-07 22:56:00
7:56 PM,77.0,69.1,76,29.77,10.0,WSW,15.0,19.6,N/A,,Overcast,240,2013-06-07 23:56:00
8:56 PM,75.9,69.1,79,29.81,10.0,WSW,10.4,-,N/A,,Clear,240,2013-06-08 00:56:00
9:56 PM,75.0,70.0,84,29.85,10.0,WSW,6.9,-,N/A,,Partly Cloudy,240,2013-06-08 01:56:00
10:56 PM,73.0,70.0,90,29.87,10.0,SW,3.5,-,N/A,,Clear,230,2013-06-08 02:56:00
11:56 PM,73.0,70.0,90,29.88,10.0,South,3.5,-,N/A,,Clear,180,2013-06-08 03:56:00